Location: LDNL
(36.4545°S, 141.6685°E)
Time: 10:42:41
(UTC+10:00)

Tiros 1 despin weight - Pass Details

Date: 15 August 2022
Orbit: 590 x 639 km, 48.2° (Epoch: 23 September)

Event Time Altitude Azimuth Distance (km) Brightness Sun altitude
Rises 05:20:17 0° 234° (SW) 2,960 - -23.9°
Reaches altitude 10° 05:22:39 10° 232° (SW) 2,050 - -23.4°
Exits shadow 05:26:22 53° 211° (SSW) 797 ? -22.7°
Maximum altitude 05:27:23 72° 146° (SSE) 680 ? -22.5°
Drops below altitude 10° 05:32:04 10° 61° (ENE) 2,033 ? -21.5°
Sets 05:34:24 0° 59° (ENE) 2,933 ? -21.0°
